{"data":{"norad_id":63810,"intl_designator":"2025-092G","name":"STARLINK-34127","alt_names":[],"object_type":"PAYLOAD","status":"ACTIVE","operator":null,"country":"US","launch_date":"2025-05-04","launch_site_code":"AFETR","launch_vehicle":null,"mission":null,"orbit_class":"UNKNOWN","rcs_meters":null,"size_class":null,"mass_kg":null,"dimensions":null,"purposes":["comms"],"wikipedia_slug":null,"has_3d_model":false,"image_url":null,"decayed_at":null,"tle_current":{"epoch":"2026-09-20T01:37:42.786912Z","epoch_age_seconds":187240,"freshness":"STALE","line1":"1 63810U 25092G   26263.06785633  .00011769  00000+0  43637-3 0  9992","line2":"2 63810  42.9999 154.6789 0001324 273.1704  86.8996 15.27591647 78341","mean_motion":15.27591647,"eccentricity":0.0001324,"inclination_deg":42.9999,"raan_deg":154.6789,"arg_perigee_deg":273.1704,"mean_anomaly_deg":86.8996,"bstar":0.00043637,"rev_number":7834,"period_min":94.266029984386,"perigee_km":482.1058045316,"apogee_km":483.92263737491,"semimajor_km":6861.1512209533,"source":"CELESTRAK","updated_at":"2026-09-21T09:00:35.105138Z"}}}